Weather History for Siloam Springs, AR

Change the Weather History Date:

Friday, October 4, 2013

  Actual Average Record
Temperature  
Mean Temperature 78 °F -  
Max Temperature 84 °F 71 °F 89 °F (2006)
Min Temperature 71 °F 50 °F 39 °F (2010)
Cooling Degree Days 12    
Growing Degree Days 28 (Base 50)    
Moisture  
Dew Point 64 °F    
Average Humidity 66    
Maximum Humidity 78    
Minimum Humidity 51    
Precipitation  
Precipitation 0.00 in - - ()
Sea Level Pressure  
Sea Level Pressure 29.93 in    
Wind  
Wind Speed 11 mph (South)    
Max Wind Speed 20 mph    
Max Gust Speed 26 mph    
Visibility 10 miles    
Events      
Averages and records for this station are not official NWS values.
T = Trace of Precipitation, MM = Missing Value Source: NWS Daily Summary

Daily Weather History Graph

Daily Weather History Graph

Search for Another Location

Airport:

Trip Planner

Search our weather history database for the weather conditions in past years. The results will help you decide how hot, cold, wet, or windy it might be!

Date:

Astronomy

Oct. 04, 2013 Rise Set
Actual Time 7:15 AM CDT 6:56 PM CDT
Civil Twilight 6:50 AM CDT 7:22 PM CDT
Nautical Twilight 6:20 AM CDT 7:52 PM CDT
Astronomical Twilight 5:50 AM CDT 8:21 PM CDT
Moon 6:51 AM CDT (10/4) 6:40 PM CDT (10/4)
Length of Visible Light 12h 32m
Length of Day
11h 41m
Waning Crescent, 0% of the Moon is Illuminated
Oct 4
Waning Crescent
Oct 4
New
Oct 11
First Quarter
Oct 18
Full
Oct 26
Last Quarter

Hourly Weather History & Observations

Time (CDT) Temp. Heat Index Dew Point Humidity Pressure Visibility Wind Dir Wind Speed Gust Speed Precip Events Conditions
12:15 AM 73.4 °F - 62.6 °F 69% 29.92 in 10.0 mi South 11.5 mph 17.3 mph N/A   Clear
12:35 AM 73.4 °F - 62.6 °F 69% 29.92 in 10.0 mi South 11.5 mph - N/A   Clear
12:55 AM 73.4 °F - 62.6 °F 69% 29.92 in 10.0 mi South 10.4 mph 17.3 mph N/A   Clear
1:15 AM 71.6 °F - 64.4 °F 78% 29.92 in 10.0 mi South 10.4 mph - N/A   Clear
1:35 AM 71.6 °F - 62.6 °F 73% 29.93 in 10.0 mi South 9.2 mph - N/A   Clear
1:55 AM 71.6 °F - 64.4 °F 78% 29.93 in 10.0 mi South 9.2 mph - N/A   Clear
2:15 AM 71.6 °F - 64.4 °F 78% 29.93 in 10.0 mi South 10.4 mph - N/A   Clear
2:35 AM 71.6 °F - 64.4 °F 78% 29.93 in 10.0 mi South 9.2 mph - N/A   Clear
2:55 AM 71.6 °F - 64.4 °F 78% 29.93 in 10.0 mi South 11.5 mph - N/A   Clear
3:15 AM 71.6 °F - 64.4 °F 78% 29.93 in 10.0 mi South 9.2 mph - N/A   Clear
3:35 AM 71.6 °F - 64.4 °F 78% 29.93 in 10.0 mi South 8.1 mph - N/A   Scattered Clouds
3:55 AM 71.6 °F - 64.4 °F 78% 29.92 in 10.0 mi South 10.4 mph - N/A   Scattered Clouds
4:15 AM 71.6 °F - 64.4 °F 78% 29.93 in 10.0 mi South 9.2 mph - N/A   Clear
4:35 AM 71.6 °F - 64.4 °F 78% 29.93 in 10.0 mi South 9.2 mph - N/A   Clear
4:55 AM 71.6 °F - 64.4 °F 78% 29.93 in 10.0 mi South 9.2 mph - N/A   Clear
5:15 AM 71.6 °F - 62.6 °F 73% 29.93 in 10.0 mi South 8.1 mph - N/A   Clear
5:35 AM 71.6 °F - 64.4 °F 78% 29.93 in 10.0 mi South 8.1 mph - N/A   Clear
5:55 AM 71.6 °F - 62.6 °F 73% 29.93 in 10.0 mi South 8.1 mph - N/A   Clear
6:15 AM 71.6 °F - 62.6 °F 73% 29.93 in 10.0 mi South 9.2 mph - N/A   Clear
6:35 AM 71.6 °F - 62.6 °F 73% 29.94 in 10.0 mi South 9.2 mph - N/A   Clear
6:55 AM 71.6 °F - 62.6 °F 73% 29.94 in 10.0 mi South 10.4 mph - N/A   Clear
7:15 AM 71.6 °F - 62.6 °F 73% 29.94 in 10.0 mi South 8.1 mph - N/A   Clear
7:35 AM 71.6 °F - 62.6 °F 73% 29.94 in 10.0 mi South 9.2 mph - N/A   Clear
7:55 AM 71.6 °F - 62.6 °F 73% 29.94 in 10.0 mi South 11.5 mph - N/A   Clear
8:15 AM 71.6 °F - 64.4 °F 78% 29.95 in 10.0 mi South 10.4 mph - N/A   Clear
8:35 AM 73.4 °F - 64.4 °F 73% 29.95 in 10.0 mi South 11.5 mph 19.6 mph N/A   Clear
8:55 AM 73.4 °F - 64.4 °F 73% 29.96 in 10.0 mi South 12.7 mph - N/A   Clear
9:15 AM 75.2 °F - 64.4 °F 69% 29.95 in 10.0 mi South 15.0 mph - N/A   Clear
9:35 AM 77.0 °F - 66.2 °F 69% 29.96 in 10.0 mi South 15.0 mph - N/A   Partly Cloudy
9:55 AM 77.0 °F - 66.2 °F 69% 29.96 in 10.0 mi SSW 19.6 mph 26.5 mph N/A   Mostly Cloudy
10:15 AM 77.0 °F - 66.2 °F 69% 29.96 in 10.0 mi South 17.3 mph 25.3 mph N/A   Mostly Cloudy
10:35 AM 78.8 °F - 66.2 °F 65% 29.96 in 10.0 mi SSW 13.8 mph - N/A   Mostly Cloudy
10:55 AM 78.8 °F - 66.2 °F 65% 29.96 in 10.0 mi SSW 19.6 mph 24.2 mph N/A   Mostly Cloudy
11:15 AM 78.8 °F - 66.2 °F 65% 29.96 in 10.0 mi SSW 16.1 mph 25.3 mph N/A   Mostly Cloudy
11:35 AM 80.6 °F 82.7 °F 66.2 °F 61% 29.96 in 10.0 mi South 17.3 mph 20.7 mph N/A   Mostly Cloudy
11:55 AM 80.6 °F 82.7 °F 66.2 °F 61% 29.96 in 10.0 mi SSW 18.4 mph - N/A   Overcast
12:15 PM 80.6 °F 82.7 °F 66.2 °F 61% 29.96 in 10.0 mi South 19.6 mph 23.0 mph N/A   Mostly Cloudy
12:35 PM 80.6 °F 82.7 °F 66.2 °F 61% 29.95 in 10.0 mi SSW 18.4 mph 21.9 mph N/A   Scattered Clouds
12:55 PM 82.4 °F 84.6 °F 66.2 °F 58% 29.95 in 10.0 mi South 13.8 mph 20.7 mph N/A   Scattered Clouds
1:15 PM 80.6 °F 82.7 °F 66.2 °F 61% 29.94 in 10.0 mi South 13.8 mph - N/A   Mostly Cloudy
1:35 PM 82.4 °F 84.6 °F 66.2 °F 58% 29.93 in 10.0 mi SSW 17.3 mph 20.7 mph N/A   Overcast
1:55 PM 84.2 °F 86.6 °F 66.2 °F 55% 29.92 in 10.0 mi SSW 15.0 mph 20.7 mph N/A   Mostly Cloudy
2:15 PM 84.2 °F 86.6 °F 66.2 °F 55% 29.91 in 10.0 mi SSW 13.8 mph 24.2 mph N/A   Partly Cloudy
2:35 PM 82.4 °F 84.6 °F 66.2 °F 58% 29.91 in 10.0 mi South 16.1 mph 21.9 mph N/A   Mostly Cloudy
2:55 PM 84.2 °F 86.6 °F 66.2 °F 55% 29.91 in 10.0 mi SSW 16.1 mph 19.6 mph N/A   Scattered Clouds
3:15 PM 84.2 °F 85.6 °F 64.4 °F 51% 29.90 in 10.0 mi South 16.1 mph 21.9 mph N/A   Scattered Clouds
3:35 PM 84.2 °F 85.6 °F 64.4 °F 51% 29.90 in 10.0 mi South 15.0 mph 21.9 mph N/A   Partly Cloudy
3:55 PM 82.4 °F 83.4 °F 62.6 °F 51% 29.90 in 10.0 mi South 15.0 mph 21.9 mph N/A   Clear
4:15 PM 82.4 °F 83.4 °F 62.6 °F 51% 29.90 in 10.0 mi South 15.0 mph 23.0 mph N/A   Partly Cloudy
4:35 PM 84.2 °F 85.6 °F 64.4 °F 51% 29.90 in 10.0 mi South 12.7 mph 20.7 mph N/A   Clear
4:55 PM 82.4 °F 83.9 °F 64.4 °F 54% 29.90 in 10.0 mi South 9.2 mph - N/A   Partly Cloudy
5:15 PM 80.6 °F 82.3 °F 64.4 °F 58% 29.90 in 10.0 mi South 10.4 mph - N/A   Scattered Clouds
5:35 PM 80.6 °F 82.3 °F 64.4 °F 58% 29.90 in 10.0 mi South 10.4 mph - N/A   Partly Cloudy
5:55 PM 80.6 °F 81.8 °F 62.6 °F 54% 29.89 in 10.0 mi South 9.2 mph - N/A   Partly Cloudy
6:15 PM 78.8 °F - 62.6 °F 57% 29.89 in 10.0 mi South 6.9 mph - N/A   Clear
6:35 PM 78.8 °F - 62.6 °F 57% 29.89 in 10.0 mi South 9.2 mph - N/A   Scattered Clouds
6:55 PM 78.8 °F - 62.6 °F 57% 29.89 in 10.0 mi South 10.4 mph - N/A   Partly Cloudy
7:15 PM 78.8 °F - 60.8 °F 54% 29.89 in 10.0 mi South 9.2 mph - N/A   Clear
7:35 PM 77.0 °F - 60.8 °F 57% 29.89 in 10.0 mi South 9.2 mph - N/A   Clear
7:55 PM 75.2 °F - 60.8 °F 61% 29.90 in 10.0 mi South 8.1 mph - N/A   Clear
8:35 PM 75.2 °F - 60.8 °F 61% 29.92 in 10.0 mi SSE 6.9 mph - N/A   Clear
8:55 PM 73.4 °F - 60.8 °F 65% 29.93 in 10.0 mi SE 4.6 mph - N/A   Clear
9:15 PM 71.6 °F - 60.8 °F 69% 29.93 in 10.0 mi SSE 5.8 mph - N/A   Clear
9:35 PM 73.4 °F - 60.8 °F 65% 29.94 in 10.0 mi SSE 6.9 mph - N/A   Clear
9:55 PM 71.6 °F - 60.8 °F 69% 29.94 in 10.0 mi SSE 6.9 mph - N/A   Clear
10:15 PM 71.6 °F - 60.8 °F 69% 29.95 in 10.0 mi SSE 8.1 mph - N/A   Clear
10:35 PM 71.6 °F - 60.8 °F 69% 29.95 in 10.0 mi SSE 8.1 mph - N/A   Clear
10:55 PM 71.6 °F - 60.8 °F 69% 29.95 in 10.0 mi SE 5.8 mph - N/A   Clear
11:15 PM 71.6 °F - 60.8 °F 69% 29.94 in 10.0 mi SSE 6.9 mph - N/A   Clear
11:35 PM 71.6 °F - 62.6 °F 73% 29.95 in 10.0 mi South 4.6 mph - N/A   Clear